Find Starlink 30350

NORAD ID: 57746 Int'l Des: 2023-131 Owner: SPXS Country: US Constellation: starlink operational
LEOCIRCULAR

現在のビュー

3D地球を読み込み中...

About Starlink 30350

Starlink 30350 (NORAD 57746) is a starlink constellation satellite (v2 mini) launched Sep 1, 2023 by SPXS of US. It operates in LEO, CIRCULAR orbit with a mass of 730.00 kg.

Starlink 30350について

説明を読み込み中...

次回通過

Passes for default location (London). Set your location on the main map for personalized predictions.

高度履歴

Loading altitude history...

軌道要素

1 57746U 23131Q 26177.67238736 -.00003425 00000-0 -11499-3 0 9997
2 57746 43.0036 273.5878 0001685 278.8823 81.1838 15.27579441156629
Epoch: Jun 26, 2026 • Age: 23 hours

現在のステータス

高度 495.3 km
速度 7.62 km/s
衛星直下点 -43.08°S, 37.35°E
打ち上げ日 Sep 1, 2023
運用期間 2.8 years
タイプ internet

技術仕様

分類 Payload
質量 730.00 kg
乾燥質量 700.00 kg
総質量 730.00 kg
長さ 0.30 m
直径 4.10 m
スパン 29.00 m
形状 Box + pan
製造者 SPXS
バスタイプ Starlink V2M
フェーズステータス In Orbit
所有者/国 SPXS/US

Most Searched